WJA820 KATL-CYUL

Flight info

Callsign WJA820
Flight time 1h 52m
Altitude 39000
Route SMKEY2 BOBBD Q71 PSB J59 SYR DCT ART IMPAC4
Aircraft B789/H-SDE1E2E3FGHIJ2J3J4J5M1RWXY/LB1D1

Departure

Time 2026-05-06 21:08
Airport Hartsfield Jackson Atlanta International Airport (KATL)

Arrival

Time 2026-05-06 23:01
Airport Montreal / Pierre Elliott Trudeau International Airport (CYUL)
Time Latitude Longitude Altitude Speed Heading
2026-05-06 20:35 33.63937 -84.41874 1012 ft 0 kts 303°
2026-05-06 20:57 33.63936 -84.41872 1012 ft 2 kts 303°
2026-05-06 20:57 33.63927 -84.41855 1025 ft 4 kts 302°
2026-05-06 20:58 33.63915 -84.41828 1029 ft 2 kts 289°
2026-05-06 20:58 33.63907 -84.41803 1009 ft 4 kts 296°
2026-05-06 20:58 33.63893 -84.41774 1011 ft 4 kts 301°
2026-05-06 20:58 33.63888 -84.41763 1012 ft 0 kts 295°
2026-05-06 21:01 33.63888 -84.41764 1012 ft 2 kts 294°
2026-05-06 21:01 33.63882 -84.41784 1012 ft 4 kts 229°
2026-05-06 21:01 33.63835 -84.41813 1012 ft 13 kts 200°
2026-05-06 21:02 33.63727 -84.41826 1012 ft 18 kts 179°
2026-05-06 21:02 33.63651 -84.41882 1012 ft 10 kts 271°
2026-05-06 21:02 33.63655 -84.41983 1012 ft 14 kts 270°
2026-05-06 21:02 33.63655 -84.42115 1012 ft 17 kts 267°
2026-05-06 21:03 33.63692 -84.42227 1012 ft 14 kts 340°
2026-05-06 21:03 33.63796 -84.42235 1012 ft 16 kts 357°
2026-05-06 21:03 33.63917 -84.42251 1012 ft 19 kts 350°
2026-05-06 21:03 33.64041 -84.42245 1012 ft 19 kts
2026-05-06 21:04 33.64163 -84.42239 1012 ft 16 kts
2026-05-06 21:04 33.64283 -84.42237 1012 ft 19 kts
2026-05-06 21:04 33.64416 -84.42234 1012 ft 13 kts
2026-05-06 21:04 33.64446 -84.42235 1012 ft 0 kts 359°
2026-05-06 21:05 33.64460 -84.42235 1012 ft 4 kts
2026-05-06 21:05 33.64491 -84.42229 1012 ft 2 kts 31°
2026-05-06 21:05 33.64522 -84.42163 1011 ft 16 kts 66°
2026-05-06 21:05 33.64542 -84.41988 1011 ft 26 kts 89°
2026-05-06 21:06 33.64541 -84.41728 1012 ft 36 kts 89°
2026-05-06 21:06 33.64543 -84.41432 1012 ft 35 kts 90°
2026-05-06 21:06 33.64545 -84.41144 1012 ft 34 kts 90°
2026-05-06 21:06 33.64542 -84.40878 1012 ft 31 kts 91°
2026-05-06 21:07 33.64539 -84.40635 1011 ft 25 kts 87°
2026-05-06 21:07 33.64612 -84.40570 1010 ft 13 kts
2026-05-06 21:07 33.64677 -84.40601 1009 ft 7 kts 281°
2026-05-06 21:07 33.64680 -84.40699 1009 ft 27 kts 270°
2026-05-06 21:08 33.64678 -84.41194 1013 ft 96 kts 269°
2026-05-06 21:08 33.64677 -84.42286 1023 ft 167 kts 268°
2026-05-06 21:08 33.64694 -84.43812 1584 ft 190 kts 266°
2026-05-06 21:08 33.64698 -84.45457 2289 ft 206 kts 265°
2026-05-06 21:09 33.64957 -84.47193 3026 ft 230 kts 289°
2026-05-06 21:09 33.65696 -84.48931 3934 ft 235 kts 291°
2026-05-06 21:09 33.66401 -84.50694 4957 ft 242 kts 290°
2026-05-06 21:09 33.67128 -84.52601 5837 ft 252 kts 289°
2026-05-06 21:10 33.67866 -84.54505 7060 ft 253 kts 290°
2026-05-06 21:10 33.68851 -84.56283 8132 ft 263 kts 309°
2026-05-06 21:10 33.70362 -84.57595 9216 ft 278 kts 329°
2026-05-06 21:10 33.72290 -84.58168 10284 ft 296 kts 351°
2026-05-06 21:11 33.74378 -84.58172 11198 ft 304 kts 353°
2026-05-06 21:11 33.76512 -84.58133 12180 ft 309 kts 353°
2026-05-06 21:11 33.78674 -84.58093 13224 ft 314 kts 352°
2026-05-06 21:11 33.80888 -84.57902 14172 ft 329 kts
2026-05-06 21:12 33.83087 -84.56837 14738 ft 357 kts 21°
2026-05-06 21:12 33.85367 -84.55346 14974 ft 388 kts 24°
2026-05-06 21:12 33.87760 -84.53659 15454 ft 403 kts 24°
2026-05-06 21:12 33.90205 -84.51993 16371 ft 406 kts 22°
2026-05-06 21:13 33.92671 -84.50389 17169 ft 410 kts 21°
2026-05-06 21:13 33.95227 -84.48712 17976 ft 416 kts 22°
2026-05-06 21:13 33.97739 -84.47022 18697 ft 421 kts 22°
2026-05-06 21:13 34.00305 -84.45293 19432 ft 425 kts 22°
2026-05-06 21:14 34.02909 -84.43559 20120 ft 429 kts 21°
2026-05-06 21:14 34.05537 -84.41812 20813 ft 434 kts 21°
2026-05-06 21:14 34.08189 -84.40037 21476 ft 439 kts 21°
2026-05-06 21:14 34.10871 -84.38237 22140 ft 443 kts 21°
2026-05-06 21:15 34.13583 -84.36420 22786 ft 448 kts 21°
2026-05-06 21:15 34.16321 -84.34587 23449 ft 452 kts 21°
2026-05-06 21:15 34.19081 -84.32736 23993 ft 456 kts 21°
2026-05-06 21:15 34.21866 -84.30865 24541 ft 460 kts 21°
2026-05-06 21:16 34.24674 -84.28977 25089 ft 464 kts 21°
2026-05-06 21:16 34.27516 -84.27120 25623 ft 463 kts 16°
2026-05-06 21:16 34.30520 -84.25832 26084 ft 455 kts
2026-05-06 21:16 34.33606 -84.25069 26494 ft 455 kts
2026-05-06 21:17 34.36722 -84.24332 26957 ft 458 kts
2026-05-06 21:17 34.39861 -84.23600 27392 ft 462 kts
2026-05-06 21:17 34.43029 -84.22861 27832 ft 465 kts
2026-05-06 21:17 34.46222 -84.22111 28260 ft 469 kts
2026-05-06 21:18 34.49433 -84.21356 28656 ft 472 kts
2026-05-06 21:18 34.52674 -84.20594 29058 ft 476 kts
2026-05-06 21:18 34.55941 -84.19827 29454 ft 479 kts
2026-05-06 21:18 34.59227 -84.19054 29833 ft 483 kts
2026-05-06 21:19 34.62536 -84.18275 30181 ft 486 kts
2026-05-06 21:19 34.65860 -84.17491 30544 ft 488 kts
2026-05-06 21:19 34.69207 -84.16702 30831 ft 492 kts
2026-05-06 21:19 34.72572 -84.15908 31149 ft 494 kts
2026-05-06 21:20 34.75957 -84.15107 31487 ft 496 kts
2026-05-06 21:20 34.79346 -84.14167 31738 ft 502 kts
2026-05-06 21:20 34.82753 -84.13229 32045 ft 503 kts
2026-05-06 21:20 34.86133 -84.12311 32319 ft 506 kts
2026-05-06 21:21 34.89573 -84.11355 32599 ft 508 kts
2026-05-06 21:21 34.93026 -84.10383 32865 ft 511 kts
2026-05-06 21:21 34.96499 -84.09415 33113 ft 513 kts
2026-05-06 21:21 34.99985 -84.08450 33381 ft 515 kts
2026-05-06 21:22 35.03494 -84.07475 33619 ft 518 kts
2026-05-06 21:22 35.07016 -84.06489 33873 ft 520 kts
2026-05-06 21:22 35.10551 -84.05498 34097 ft 523 kts
2026-05-06 21:22 35.14097 -84.04509 34367 ft 523 kts
2026-05-06 21:23 35.17647 -84.03516 34726 ft 522 kts
2026-05-06 21:23 35.21190 -84.02522 35032 ft 522 kts
2026-05-06 21:23 35.24731 -84.01529 35354 ft 521 kts
2026-05-06 21:23 35.28261 -84.00539 35692 ft 519 kts
2026-05-06 21:24 35.31781 -83.99551 35991 ft 519 kts
2026-05-06 21:24 35.35291 -83.98564 36317 ft 517 kts
2026-05-06 21:24 35.38804 -83.97578 36591 ft 516 kts
2026-05-06 21:24 35.42301 -83.96593 36798 ft 518 kts
2026-05-06 21:25 35.45821 -83.95603 36938 ft 518 kts 359°
2026-05-06 21:25 35.49326 -83.94612 37236 ft 515 kts 360°
2026-05-06 21:25 35.52810 -83.93625 37533 ft 514 kts 359°
2026-05-06 21:25 35.56295 -83.92642 37862 ft 513 kts 359°
2026-05-06 21:26 35.59764 -83.91663 38212 ft 510 kts 358°
2026-05-06 21:26 35.63175 -83.90697 38414 ft 510 kts 358°
2026-05-06 21:26 35.66628 -83.89720 38619 ft 509 kts 358°
2026-05-06 21:26 35.70077 -83.88741 38859 ft 508 kts 358°
2026-05-06 21:27 35.73529 -83.87763 38913 ft 511 kts 358°
2026-05-06 21:27 35.80436 -83.85346 38932 ft 529 kts
2026-05-06 21:27 35.83786 -83.83311 38939 ft 543 kts 16°
2026-05-06 21:28 35.87089 -83.81054 38949 ft 543 kts 16°
2026-05-06 21:28 35.93685 -83.76521 38953 ft 543 kts 16°
2026-05-06 21:29 36.00287 -83.71992 38947 ft 542 kts 16°
2026-05-06 21:29 36.06870 -83.67459 38949 ft 543 kts 16°
2026-05-06 21:30 36.13500 -83.62894 38961 ft 549 kts 16°
2026-05-06 21:30 36.20203 -83.58258 38955 ft 554 kts 16°
2026-05-06 21:31 36.26961 -83.53582 38960 ft 559 kts 16°
2026-05-06 21:31 36.33775 -83.48853 38955 ft 563 kts 16°
2026-05-06 21:32 36.40572 -83.44129 38944 ft 565 kts 17°
2026-05-06 21:32 36.50884 -83.36940 38939 ft 566 kts 16°
2026-05-06 21:33 36.57753 -83.32144 38935 ft 566 kts 17°
2026-05-06 21:33 36.64633 -83.27327 38936 ft 567 kts 17°
2026-05-06 21:34 36.71485 -83.22516 38936 ft 565 kts 16°
2026-05-06 21:34 36.78357 -83.17694 38924 ft 567 kts 17°
2026-05-06 21:35 36.85216 -83.12851 38939 ft 565 kts 16°
2026-05-06 21:35 36.92023 -83.07972 38949 ft 572 kts 22°
2026-05-06 21:36 36.95233 -83.04905 38954 ft 590 kts 32°
2026-05-06 21:36 36.98146 -83.01192 38964 ft 607 kts 42°
2026-05-06 21:36 37.03412 -82.92826 38958 ft 614 kts 43°
2026-05-06 21:37 37.08645 -82.84367 38959 ft 614 kts 43°
2026-05-06 21:37 37.13782 -82.75784 38972 ft 616 kts 45°
2026-05-06 21:38 37.18864 -82.67237 38971 ft 614 kts 44°
2026-05-06 21:38 37.23991 -82.58665 38964 ft 614 kts 45°
2026-05-06 21:39 37.29080 -82.50057 38954 ft 613 kts 44°
2026-05-06 21:39 37.34179 -82.41479 38963 ft 613 kts 45°
2026-05-06 21:40 37.39256 -82.32857 38959 ft 613 kts 44°
2026-05-06 21:40 37.44344 -82.24243 38953 ft 613 kts 45°
2026-05-06 21:41 37.49503 -82.15773 38963 ft 600 kts 36°
2026-05-06 21:41 37.52493 -82.12208 38963 ft 585 kts 26°
2026-05-06 21:41 37.55738 -82.09245 38960 ft 573 kts 21°
2026-05-06 21:42 37.62349 -82.03565 38957 ft 575 kts 21°
2026-05-06 21:42 37.68972 -81.97883 38952 ft 576 kts 22°
2026-05-06 21:43 37.75585 -81.92181 38944 ft 576 kts 21°
2026-05-06 21:43 37.82200 -81.86477 38955 ft 576 kts 22°
2026-05-06 21:44 37.88815 -81.80754 38958 ft 577 kts 22°
2026-05-06 21:44 37.95443 -81.75009 38954 ft 577 kts 22°
2026-05-06 21:45 38.00948 -81.70226 38949 ft 577 kts 22°
2026-05-06 21:45 38.08650 -81.63525 38966 ft 578 kts 22°
2026-05-06 21:46 38.14206 -81.58674 38967 ft 578 kts 22°
2026-05-06 21:46 38.20836 -81.52880 38977 ft 579 kts 22°
2026-05-06 21:47 38.27449 -81.47080 38983 ft 576 kts 22°
2026-05-06 21:47 38.34064 -81.41278 38983 ft 578 kts 22°
2026-05-06 21:48 38.40678 -81.35446 38966 ft 577 kts 22°
2026-05-06 21:48 38.47285 -81.29622 38966 ft 576 kts 22°
2026-05-06 21:49 38.53842 -81.23823 38960 ft 577 kts 22°
2026-05-06 21:49 38.60441 -81.17974 38955 ft 578 kts 22°
2026-05-06 21:50 38.67053 -81.12101 38958 ft 577 kts 22°
2026-05-06 21:50 38.73636 -81.06239 38950 ft 576 kts 22°
2026-05-06 21:51 38.80201 -81.00382 38955 ft 575 kts 22°
2026-05-06 21:51 38.86761 -80.94515 38955 ft 575 kts 22°
2026-05-06 21:52 38.93314 -80.88640 38955 ft 574 kts 22°
2026-05-06 21:52 38.99848 -80.82716 38964 ft 580 kts 27°
2026-05-06 21:53 39.02891 -80.79190 38968 ft 597 kts 37°
2026-05-06 21:53 39.05701 -80.75203 38955 ft 603 kts 37°
2026-05-06 21:53 39.11302 -80.67159 38953 ft 603 kts 38°
2026-05-06 21:54 39.16890 -80.59107 38951 ft 602 kts 38°
2026-05-06 21:54 39.22472 -80.51057 38955 ft 603 kts 38°
2026-05-06 21:55 39.28057 -80.42964 38953 ft 604 kts 38°
2026-05-06 21:55 39.33614 -80.34905 38951 ft 605 kts 38°
2026-05-06 21:56 39.39200 -80.26773 38950 ft 605 kts 38°
2026-05-06 21:56 39.44783 -80.18631 38950 ft 605 kts 38°
2026-05-06 21:57 39.50363 -80.10467 38970 ft 605 kts 38°
2026-05-06 21:57 39.55949 -80.02280 38972 ft 606 kts 38°
2026-05-06 21:58 39.61527 -79.94084 38978 ft 605 kts 38°
2026-05-06 21:58 39.67098 -79.85878 38979 ft 606 kts 39°
2026-05-06 21:59 39.72667 -79.77654 38972 ft 607 kts 39°
2026-05-06 21:59 39.78236 -79.69404 38961 ft 607 kts 39°
2026-05-06 22:00 39.83779 -79.61173 38963 ft 605 kts 39°
2026-05-06 22:00 39.89316 -79.52932 38965 ft 604 kts 39°
2026-05-06 22:01 39.94849 -79.44674 38960 ft 606 kts 39°
2026-05-06 22:01 40.00388 -79.36379 38951 ft 606 kts 39°
2026-05-06 22:02 40.05922 -79.28076 38952 ft 606 kts 39°
2026-05-06 22:02 40.11442 -79.19766 38955 ft 605 kts 39°
2026-05-06 22:03 40.16956 -79.11478 38942 ft 602 kts 39°
2026-05-06 22:03 40.22436 -79.03473 38924 ft 596 kts 39°
2026-05-06 22:04 40.27929 -78.95280 38948 ft 601 kts 39°
2026-05-06 22:04 40.33453 -78.87092 38935 ft 598 kts 39°
2026-05-06 22:05 40.38949 -78.78898 38929 ft 598 kts 39°
2026-05-06 22:05 40.44424 -78.70717 38936 ft 596 kts 39°
2026-05-06 22:06 40.49893 -78.62531 38923 ft 597 kts 40°
2026-05-06 22:06 40.55348 -78.54329 38916 ft 595 kts 40°
2026-05-06 22:07 40.60801 -78.46125 38910 ft 595 kts 40°
2026-05-06 22:07 40.66230 -78.37916 38899 ft 593 kts 40°
2026-05-06 22:08 40.71650 -78.29719 38898 ft 594 kts 40°
2026-05-06 22:08 40.77066 -78.21490 38906 ft 594 kts 40°
2026-05-06 22:09 40.82473 -78.13262 38904 ft 593 kts 40°
2026-05-06 22:09 40.87860 -78.05036 38914 ft 591 kts 40°
2026-05-06 22:10 40.90644 -78.01095 38929 ft 579 kts 32°
2026-05-06 22:10 40.93746 -77.97799 38929 ft 566 kts 22°
2026-05-06 22:10 41.00413 -77.92539 38898 ft 556 kts 19°
2026-05-06 22:11 41.07066 -77.87439 38905 ft 556 kts 19°
2026-05-06 22:11 41.13755 -77.82285 38892 ft 556 kts 19°
2026-05-06 22:12 41.20443 -77.77128 38890 ft 556 kts 19°
2026-05-06 22:12 41.27117 -77.71965 38885 ft 555 kts 19°
2026-05-06 22:13 41.33797 -77.66789 38880 ft 557 kts 19°
2026-05-06 22:13 41.40484 -77.61589 38885 ft 556 kts 20°
2026-05-06 22:14 41.47165 -77.56389 38883 ft 556 kts 20°
2026-05-06 22:14 41.53828 -77.51182 38884 ft 556 kts 20°
2026-05-06 22:15 41.60497 -77.45964 38894 ft 554 kts 20°
2026-05-06 22:15 41.67145 -77.40748 38896 ft 554 kts 20°
2026-05-06 22:16 41.73802 -77.35513 38903 ft 556 kts 20°
2026-05-06 22:16 41.80462 -77.30258 38899 ft 554 kts 20°
2026-05-06 22:17 41.87107 -77.25012 38906 ft 555 kts 21°
2026-05-06 22:17 41.93757 -77.19738 38908 ft 555 kts 21°
2026-05-06 22:18 42.00408 -77.14459 38918 ft 555 kts 21°
2026-05-06 22:18 42.07044 -77.09173 38922 ft 555 kts 21°
2026-05-06 22:19 42.13643 -77.03908 38930 ft 555 kts 21°
2026-05-06 22:19 42.20274 -76.98600 38923 ft 554 kts 21°
2026-05-06 22:20 42.26903 -76.93286 38921 ft 554 kts 21°
2026-05-06 22:20 42.33507 -76.87971 38918 ft 551 kts 21°
2026-05-06 22:21 42.40107 -76.82655 38918 ft 552 kts 21°
2026-05-06 22:21 42.46703 -76.77321 38918 ft 552 kts 22°
2026-05-06 22:22 42.53292 -76.71985 38926 ft 552 kts 22°
2026-05-06 22:22 42.59884 -76.66629 38918 ft 552 kts 22°
2026-05-06 22:23 42.66485 -76.61256 38921 ft 553 kts 22°
2026-05-06 22:23 42.73078 -76.55872 38917 ft 552 kts 22°
2026-05-06 22:24 42.79664 -76.50484 38919 ft 552 kts 22°
2026-05-06 22:24 42.86249 -76.45080 38905 ft 552 kts 22°
2026-05-06 22:25 42.92825 -76.39672 38919 ft 553 kts 22°
2026-05-06 22:25 42.99408 -76.34243 38919 ft 553 kts 23°
2026-05-06 22:26 43.06001 -76.28795 38921 ft 554 kts 23°
2026-05-06 22:26 43.12597 -76.23366 38925 ft 549 kts 19°
2026-05-06 22:27 43.16034 -76.21272 38932 ft 536 kts
2026-05-06 22:27 43.19593 -76.19930 38940 ft 525 kts
2026-05-06 22:27 43.26709 -76.18584 38926 ft 519 kts 358°
2026-05-06 22:28 43.33888 -76.17342 38923 ft 521 kts 358°
2026-05-06 22:28 43.41082 -76.16069 38920 ft 522 kts 358°
2026-05-06 22:29 43.48286 -76.14804 38915 ft 522 kts 358°
2026-05-06 22:29 43.55494 -76.13530 38914 ft 522 kts 358°
2026-05-06 22:30 43.62713 -76.12253 38915 ft 523 kts 358°
2026-05-06 22:30 43.69934 -76.10972 38911 ft 523 kts 358°
2026-05-06 22:31 43.77144 -76.09689 38909 ft 522 kts 358°
2026-05-06 22:31 43.84349 -76.08405 38907 ft 521 kts 358°
2026-05-06 22:32 43.91518 -76.07048 38906 ft 517 kts
2026-05-06 22:32 43.98266 -76.03681 38231 ft 524 kts 22°
2026-05-06 22:33 44.00343 -76.01940 37767 ft 528 kts 25°
2026-05-06 22:33 44.03451 -75.99211 37046 ft 528 kts 25°
2026-05-06 22:33 44.06553 -75.96471 36346 ft 527 kts 25°
2026-05-06 22:33 44.09642 -75.93729 35653 ft 527 kts 25°
2026-05-06 22:34 44.12739 -75.90984 34964 ft 526 kts 25°
2026-05-06 22:34 44.15825 -75.88254 34259 ft 526 kts 25°
2026-05-06 22:34 44.18911 -75.85517 33535 ft 525 kts 25°
2026-05-06 22:34 44.21982 -75.82784 32851 ft 523 kts 25°
2026-05-06 22:35 44.25041 -75.80057 32187 ft 520 kts 26°
2026-05-06 22:35 44.28081 -75.77350 31533 ft 517 kts 26°
2026-05-06 22:35 44.31104 -75.74655 30870 ft 514 kts 26°
2026-05-06 22:35 44.34106 -75.71973 30221 ft 511 kts 26°
2026-05-06 22:36 44.37096 -75.69297 29528 ft 508 kts 26°
2026-05-06 22:36 44.40056 -75.66644 28873 ft 503 kts 27°
2026-05-06 22:36 44.42988 -75.64015 28256 ft 498 kts 27°
2026-05-06 22:36 44.45891 -75.61410 27642 ft 493 kts 27°
2026-05-06 22:37 44.48718 -75.58868 27201 ft 485 kts 27°
2026-05-06 22:37 44.51533 -75.56332 26770 ft 477 kts 27°
2026-05-06 22:37 44.54306 -75.53835 26338 ft 469 kts 27°
2026-05-06 22:37 44.57031 -75.51379 25922 ft 462 kts 27°
2026-05-06 22:38 44.59712 -75.48958 25509 ft 455 kts 27°
2026-05-06 22:38 44.62357 -75.46567 25103 ft 449 kts 27°
2026-05-06 22:38 44.64967 -75.44205 24716 ft 444 kts 27°
2026-05-06 22:38 44.67554 -75.41864 24322 ft 441 kts 28°
2026-05-06 22:39 44.70126 -75.39532 23934 ft 439 kts 28°
2026-05-06 22:39 44.72589 -75.36975 23558 ft 443 kts 40°
2026-05-06 22:39 44.74694 -75.33806 23133 ft 444 kts 46°
2026-05-06 22:39 44.76722 -75.30548 22728 ft 442 kts 47°
2026-05-06 22:40 44.78724 -75.27278 22327 ft 440 kts 47°
2026-05-06 22:40 44.80726 -75.24033 21937 ft 437 kts 46°
2026-05-06 22:40 44.82727 -75.20813 21554 ft 435 kts 46°
2026-05-06 22:40 44.84710 -75.17610 21165 ft 433 kts 47°
2026-05-06 22:41 44.88642 -75.11219 20405 ft 428 kts 47°
2026-05-06 22:41 44.90589 -75.08057 20026 ft 426 kts 47°
2026-05-06 22:41 44.92526 -75.04908 19638 ft 424 kts 47°
2026-05-06 22:42 44.94458 -75.01762 19270 ft 422 kts 47°
2026-05-06 22:42 44.96375 -74.98634 18890 ft 421 kts 47°
2026-05-06 22:42 44.98263 -74.95493 18526 ft 419 kts 52°
2026-05-06 22:42 44.99746 -74.91963 18153 ft 418 kts 60°
2026-05-06 22:43 45.01182 -74.88391 17755 ft 417 kts 59°
2026-05-06 22:43 45.02619 -74.84854 17412 ft 413 kts 60°
2026-05-06 22:43 45.04021 -74.81329 17103 ft 411 kts 60°
2026-05-06 22:43 45.05415 -74.77793 16749 ft 411 kts 60°
2026-05-06 22:44 45.06811 -74.74271 16387 ft 410 kts 60°
2026-05-06 22:44 45.08204 -74.70773 16019 ft 407 kts 60°
2026-05-06 22:44 45.09587 -74.67287 15644 ft 405 kts 60°
2026-05-06 22:44 45.10958 -74.63817 15302 ft 403 kts 60°
2026-05-06 22:45 45.12382 -74.60416 14937 ft 399 kts 54°
2026-05-06 22:45 45.13869 -74.57101 14577 ft 398 kts 58°
2026-05-06 22:45 45.15283 -74.53730 14222 ft 397 kts 58°
2026-05-06 22:45 45.16719 -74.50395 13862 ft 396 kts 57°
2026-05-06 22:46 45.18181 -74.47105 13494 ft 393 kts 56°
2026-05-06 22:46 45.19624 -74.43827 13123 ft 390 kts 57°
2026-05-06 22:46 45.21039 -74.40558 12772 ft 388 kts 57°
2026-05-06 22:46 45.22442 -74.37300 12439 ft 386 kts 57°
2026-05-06 22:47 45.23840 -74.34065 12095 ft 384 kts 57°
2026-05-06 22:47 45.25232 -74.30850 11748 ft 381 kts 57°
2026-05-06 22:47 45.26615 -74.27646 11409 ft 380 kts 57°
2026-05-06 22:47 45.27988 -74.24458 11069 ft 377 kts 57°
2026-05-06 22:48 45.29346 -74.21302 10736 ft 370 kts 57°
2026-05-06 22:48 45.30673 -74.18215 10397 ft 361 kts 58°
2026-05-06 22:48 45.31965 -74.15207 10084 ft 352 kts 58°
2026-05-06 22:48 45.33225 -74.12269 9773 ft 344 kts 58°
2026-05-06 22:49 45.34456 -74.09396 9444 ft 336 kts 58°
2026-05-06 22:49 45.35645 -74.06631 9130 ft 329 kts 56°
2026-05-06 22:49 45.37145 -74.04258 8854 ft 319 kts 34°
2026-05-06 22:49 45.38808 -74.02168 8578 ft 319 kts 39°
2026-05-06 22:50 45.40409 -73.99993 8298 ft 317 kts 39°
2026-05-06 22:50 45.42015 -73.97875 8011 ft 313 kts 38°
2026-05-06 22:50 45.43624 -73.95811 7715 ft 310 kts 37°
2026-05-06 22:50 45.45217 -73.93752 7458 ft 308 kts 38°
2026-05-06 22:51 45.46784 -73.91701 7181 ft 304 kts 38°
2026-05-06 22:51 45.48333 -73.89675 6913 ft 301 kts 38°
2026-05-06 22:51 45.49875 -73.87665 6641 ft 298 kts 38°
2026-05-06 22:51 45.51391 -73.85686 6379 ft 294 kts 38°
2026-05-06 22:52 45.52889 -73.83727 6113 ft 291 kts 38°
2026-05-06 22:52 45.54372 -73.81789 5839 ft 288 kts 38°
2026-05-06 22:52 45.55851 -73.79853 5578 ft 287 kts 38°
2026-05-06 22:52 45.57318 -73.77930 5329 ft 285 kts 39°
2026-05-06 22:53 45.58771 -73.76025 5070 ft 284 kts 39°
2026-05-06 22:53 45.60202 -73.74144 4804 ft 275 kts 39°
2026-05-06 22:53 45.61587 -73.72325 4552 ft 267 kts 39°
2026-05-06 22:53 45.62934 -73.70554 4326 ft 259 kts 39°
2026-05-06 22:54 45.64239 -73.68838 4077 ft 251 kts 39°
2026-05-06 22:54 45.65505 -73.67173 3975 ft 241 kts 39°
2026-05-06 22:54 45.66697 -73.65599 3996 ft 224 kts 38°
2026-05-06 22:54 45.67659 -73.63972 3916 ft 212 kts 64°
2026-05-06 22:55 45.67697 -73.61969 3877 ft 202 kts 116°
2026-05-06 22:55 45.66925 -73.60371 3964 ft 193 kts 136°
2026-05-06 22:55 45.66066 -73.58867 3975 ft 196 kts 136°
2026-05-06 22:55 45.65211 -73.57369 3981 ft 193 kts 139°
2026-05-06 22:56 45.64126 -73.56505 3904 ft 170 kts 184°
2026-05-06 22:56 45.62980 -73.56681 3983 ft 167 kts 197°
2026-05-06 22:56 45.61909 -73.57074 3701 ft 154 kts 219°
2026-05-06 22:56 45.61193 -73.58182 3307 ft 152 kts 225°
2026-05-06 22:57 45.60329 -73.59095 2864 ft 159 kts 222°
2026-05-06 22:57 45.59352 -73.59866 2588 ft 158 kts 212°
2026-05-06 22:57 45.58346 -73.60591 2441 ft 171 kts 214°
2026-05-06 22:57 45.57416 -73.61462 2731 ft 141 kts 228°
2026-05-06 22:58 45.56729 -73.62480 2562 ft 157 kts 229°
2026-05-06 22:58 45.55933 -73.63574 2310 ft 157 kts 229°
2026-05-06 22:58 45.55123 -73.64668 2102 ft 162 kts 227°
2026-05-06 22:58 45.54300 -73.65752 1883 ft 162 kts 227°
2026-05-06 22:59 45.53474 -73.66839 1670 ft 162 kts 226°
2026-05-06 22:59 45.52658 -73.67907 1462 ft 161 kts 227°
2026-05-06 22:59 45.51872 -73.68932 1220 ft 146 kts 227°
2026-05-06 22:59 45.51135 -73.69913 958 ft 142 kts 226°
2026-05-06 23:00 45.50402 -73.70879 726 ft 148 kts 225°
2026-05-06 23:00 45.49630 -73.71886 508 ft 150 kts 222°
2026-05-06 23:00 45.48867 -73.72885 306 ft 152 kts 223°
2026-05-06 23:00 45.48092 -73.73903 127 ft 146 kts 222°
2026-05-06 23:01 45.47469 -73.74726 113 ft 96 kts 223°
2026-05-06 23:01 45.47059 -73.75257 114 ft 71 kts 222°
2026-05-06 23:01 45.46764 -73.75584 113 ft 37 kts 196°
2026-05-06 23:01 45.46543 -73.75651 114 ft 30 kts 193°
2026-05-06 23:02 45.46399 -73.75696 112 ft 0 kts 198°
2026-05-06 23:02 45.46397 -73.75697 112 ft 2 kts 197°
2026-05-06 23:03 45.46384 -73.75706 111 ft 7 kts 218°
2026-05-06 23:03 45.46360 -73.75817 111 ft 12 kts 234°
2026-05-06 23:03 45.46271 -73.75887 109 ft 21 kts 203°
2026-05-06 23:03 45.46163 -73.75979 108 ft 12 kts 211°
2026-05-06 23:04 45.46126 -73.75974 108 ft 4 kts 123°
2026-05-06 23:04 45.46118 -73.75958 109 ft 3 kts 139°
2026-05-06 23:04 45.46075 -73.75944 110 ft 11 kts 153°
2026-05-06 23:04 45.46056 -73.75821 109 ft 19 kts 84°
2026-05-06 23:05 45.46057 -73.75621 110 ft 15 kts 94°
2026-05-06 23:05 45.46064 -73.75432 111 ft 23 kts 89°
2026-05-06 23:05 45.46017 -73.75254 109 ft 19 kts 113°
2026-05-06 23:05 45.45985 -73.75146 110 ft 7 kts 148°
2026-05-06 23:06 45.45942 -73.75136 113 ft 7 kts 176°
2026-05-06 23:06 45.45917 -73.75134 113 ft 0 kts 177°